Regional Weather Roundup
Issued by NWS

Home | Current Version | Previous Version | Text Only | Print | Product List | Glossary On
Versions: 1 2 3 4 5 6 7 8 9 10 11 12 13 14 15 16 17 18 19 20 21 22 23 24 25 26 27 28 29 30 31 32 33 34 35 36 37 38 39 40 41 42 43 44 45 46 47 48 49 50
903
ASUS43 KMPX 302101
RWRMN
WEATHER ROUNDUP FOR MINNESOTA
NATIONAL WEATHER SERVICE TWIN CITIES/CHANHASSEN MN
400 PM CDT SAT APR 30 2016


NOTE: "FAIR" INDICATES FEW OR NO CLOUDS BELOW 12,000 FEET WITH NO
SIGNIFICANT WEATHER AND/OR OBSTRUCTIONS TO VISIBILITY. N/A MEANS
CURRENT SKY AND/OR WEATHER CONDITIONS ARE NOT AVAILABLE.

MNZ060>063-068>070-302200-
   Twin Cities Metro

CITY           SKY/WX    TMP DP  RH WIND       PRES   REMARKS
TWIN CITIES    CLOUDY    57  32  38 E20       30.04R
ST PAUL        CLOUDY    57  34  41 E14G23    30.05S
CRYSTAL        CLOUDY    59  32  36 E15G24    30.04S
BLAINE         CLOUDY    61  36  39 E17G23    30.05S
EDEN PRAIRIE   PTSUNNY   58  32  37 E12G23    30.03R
SOUTH ST PAUL  CLOUDY    57  32  38 E15G22    30.05R
LAKE ELMO      FAIR      57  36  44 E8        30.05S
$$
MNZ001>005-007-008-013>017-022>024-027-028-302200-
   Northwest Minnesota

CITY           SKY/WX    TMP DP  RH WIND       PRES   REMARKS
BEMIDJI        CLOUDY    58  29  32 E15G22    30.16R
HALLOCK        SUNNY     63  25  23 NE14G25   30.22F
ROSEAU         SUNNY     57  32  38 NE24      30.24F
WARROAD        SUNNY     55  32  41 NE12G17   30.26F
THIEF RVR FALL SUNNY     57  27  30 NE16G28   30.21F
CROOKSTON      SUNNY     61  27  27 E20G36    30.19S
FOSSTON        SUNNY     57  25  28 NE16G24   30.17F
DETROIT LAKES  SUNNY     59  28  31 NE17      30.14S
MOORHEAD       MOSUNNY   63  28  27 E17       30.14S
PARK RAPIDS    SUNNY     59  27  29 E13G20    30.13S
MAHNOMEN       FAIR      59  27  29 E18G28    30.14S
$$
MNZ006-009>011-018-025>026-302200-
   North Central Minnesota

CITY           SKY/WX    TMP DP  RH WIND       PRES   REMARKS
BAUDETTE       SUNNY     58  25  28 NE17      30.22F
FLAG ISLAND    SUNNY     54  27  35 NE13      30.26F
INTL FALLS     SUNNY     56  27  32 E13G23    30.22F
WASKISH        SUNNY     57  30  35 NE15G21   30.20S
BIG FORK       SUNNY     57  27  30 NE15G24   30.18F
LONGVILLE      CLOUDY    59  27  29 E14G22    30.14S
GRAND RAPIDS   MOSUNNY   55  27  33 NE10G25   30.17S
CRANE LAKE     SUNNY     54  25  32 N8G16     30.23F
ORR            SUNNY     55  21  26 NE8       30.18F
COOK           SUNNY     55  28  35 E8G17     30.19F
WALKER         CLOUDY    55  31  39 E9G17     30.15S
$$
MNZ012-019>021-037-302200-
   Northeast Minnesota

CITY           SKY/WX    TMP DP  RH WIND       PRES   REMARKS
DULUTH         MOSUNNY   47  27  45 E21G32    30.21F
ELY            MOSUNNY   54  25  32 NE10G20   30.20F
HIBBING        PTSUNNY   54  26  34 E15G22    30.16F
EVELETH        MOSUNNY   52  30  43 SE10G16   30.19S
DULUTH HARBOR  MOSUNNY   43  36  75 NE25      30.23S
TWO HARBORS    SUNNY     48  34  57 E16       30.22S
SILVER BAY     CLOUDY    46  30  53 NE12G22   30.23F
GRAND MARAIS     N/A     44  31  60 E6        30.27F
G MARAIS ARPRT PTSUNNY   45  25  45 E13       30.24F
$$
MNZ029>031-032-039>041-046>048-054>057-064-302200-
   West Central Minnesota

CITY           SKY/WX    TMP DP  RH WIND       PRES   REMARKS
FERGUS FALLS   CLOUDY    59  30  33 E13G31    30.08S
WHEATON        CLOUDY    61  37  41 E17       30.10S
MORRIS         CLOUDY    57  36  44 E20G29    30.07S
ALEXANDRIA     PTSUNNY   56  32  40 E21G28    30.09F
ELBOW LAKE     FAIR      56  33  41 NE14G24   30.10F
WADENA         CLOUDY    57  30  35 E16G22    30.11R
GLENWOOD       CLOUDY    55  36  47 NE20G29   30.08F
APPLETON       CLOUDY    59  30  33 E22       30.04F
BENSON         CLOUDY    59  30  33 E20G26    30.05F
ORTONVILLE     CLOUDY    55  36  47 E13G22    30.05F
MADISON        CLOUDY    55  34  44 E21G32    30.04S
WILLMAR        FAIR      57  36  44 NE21G26   30.05F
$$
MNZ033>034-036-042>043-049>051-058-059-302200-
   Central Minnesota

CITY           SKY/WX    TMP DP  RH WIND       PRES   REMARKS
ST CLOUD       CLOUDY    57  33  40 NE10G26   30.07S
SAUK CENTRE    FAIR      55  34  45 NE17G25   30.09S
PAYNESVILLE    CLOUDY    57  32  39 NE13G23   30.07S
AITKIN         PTSUNNY   55  23  28 E12G21    30.15S
PINE RIVER     CLOUDY    57  34  41 E16G22    30.16S
BRAINERD       MOSUNNY   55  29  36 E15G25    30.14S
STAPLES        MOSUNNY   57  28  33 E10G18    30.12R
LONG PRAIRIE   FAIR      54  32  43 NE15G24   30.10S
LITTLE FALLS   CLOUDY    54  32  43 NE13G22   30.12S
LITCHFIELD     CLOUDY    59  32  36 E21G28    30.05S
BUFFALO        CLOUDY    58  33  38 NE16G23   30.06S
MAPLE LAKE     CLOUDY    59  36  41 E17G24    30.06S
HUTCHINSON     SUNNY     56  36  47 E14G24    30.05S
$$
MNZ037-044-045-052-053-302200-
   East Central Minnesota

CITY           SKY/WX    TMP DP  RH WIND       PRES   REMARKS
PRINCETON        N/A     57  34  41 NE16G25   30.08S
MORA           MOSUNNY   55  34  44 NE9G20    30.13S
CAMBRIDGE      CLOUDY    59  39  47 N9G22     30.06S
RUSH CITY      PTSUNNY   56  33  42 NE15G21   30.09S
MOOSE LAKE     MOSUNNY   52  30  43 E14G28    30.16S
HINCKLEY       FAIR      55  36  47 NE17G29   30.11F
CLOQUET        CLOUDY    48  25  40 E22G31    30.19S
MCGREGOR       PTSUNNY   54  32  43 E20       30.18R
$$
MNZ071>073-080-081-089-090-097-098-302200-
   Southwest Minnesota

CITY           SKY/WX    TMP DP  RH WIND       PRES   REMARKS
MONTEVIDEO     PTSUNNY   55  36  47 E18G25    30.05S
GRANITE FALLS  CLOUDY    56  37  48 NE21G28   30.03F
CANBY          CLOUDY    56  39  52 NE22G29   30.03F
MARSHALL       CLOUDY    52  37  56 E16G23    30.00F
REDWOOD FALLS  CLOUDY    54  34  46 E14G26    30.01F
OLIVIA         CLOUDY    54  34  47 E15G28    30.02F
PIPESTONE      CLOUDY    46  37  71 E22G35    29.93S
WINDOM         RAIN      45  39  81 E24G31    29.98F
WORTHINGTON    CLOUDY    43  40  89 NE37G44   29.88S
JACKSON        LGT SNOW  43  41  93 NE30G37   29.95F
TRACY          DRIZZLE   48  40  73 E16G26    30.00F
SLAYTON        LGT RAIN  44  40  88 NE21G30   29.96F
$$
MNZ065>067-074>077-082>085-091>093-302200-
   South Central Minnesota

CITY           SKY/WX    TMP DP  RH WIND       PRES   REMARKS
MANKATO        CLOUDY    50  36  57 E20G29    30.02F
NEW ULM        LGT RAIN  50  36  57 E21G29    30.01F
ST JAMES       LGT RAIN  43  37  81 E15       30.02S
FAIRMONT       CLOUDY    43  34  70 NE20G26   29.97F
GLENCOE        CLOUDY    56  38  50 NE14G22   30.03F
FARIBAULT      CLOUDY    54  36  50 E12       30.03S
OWATONNA       RAIN      46  39  76 E21G29    30.03R
WASECA         RAIN      45  37  76 E17G26    30.03F
ALBERT LEA     CLOUDY    43  43 100 NE18      29.99S
$$
MNZ078>079-086>088-094>096-302200-
   Southeast Minnesota

CITY           SKY/WX    TMP DP  RH WIND       PRES   REMARKS
ROCHESTER      LGT RAIN  45  41  86 E12       30.02R
RED WING       CLOUDY    57  32  38 E10G17    30.02R
STANTON        CLOUDY    55  36  48 E14       30.02R
DODGE CENTER   LGT RAIN  45  41  87 E18       30.02R
WINONA         DRIZZLE   54  37  54 E12G22    30.01S
AUSTIN         RAIN      45  39  81 NE15G21   29.99F
PRESTON        RAIN      43  39  85 E9        30.01R
$$
ABBREVIATIONS USED IN REMARKS
   TC - TEMPERATURES IN CELSIUS
  WCI - WIND CHILL INDEX
   HX - HEAT INDEX
  VSB - VISIBILITY
$$




USA.gov is the U.S. government's official web portal to all federal, state and local government web resources and services.